Location: Peebles
(55.6412°N, 3.1714°W)
Time: 08:55:46
(UTC+01:00)

A-11 Canister half - Visible Passes

Search period start: 03 October 2023 00:00
Search period end: 13 October 2023 00:00
Orbit: 1524 x 1684 km, 47.3° (Epoch: 02 October)

Date Brightness Start Highest point End Pass type
(mag) Time Alt. Az. Time Alt. Az. Time Alt. Az.
03 Oct 11.0 20:20:29 10° W 20:26:37 19° SW 20:32:54 10° S visible
04 Oct 11.0 19:58:40 10° W 20:05:00 20° SW 20:11:28 10° S visible
05 Oct 11.0 19:36:52 10° W 19:43:23 21° SW 19:50:01 10° S visible
06 Oct 11.0 19:15:04 10° W 19:21:44 22° SW 19:28:33 10° S visible
